Location: Azul
(36.7830°S, 59.8500°W)
Time: 09:26:38
(UTC-03:00)

UKube-1 - Pass Details

Date: 30 October 2021
Orbit: 611 x 617 km, 98.4° (Epoch: 07 December)

Event Time Altitude Azimuth Distance (km) Brightness Sun altitude
Exits shadow 19:55:58 - 66° (ENE) 2,255 ? -5.6°
Reaches altitude 10° 19:56:55 10° 75° (ENE) 1,988 ? -5.8°
Maximum altitude 19:59:37 16° 114° (ESE) 1,612 ? -6.3°
Drops below altitude 10° 20:02:20 10° 153° (SSE) 2,003 ? -6.8°
Sets 20:05:12 0° 173° (S) 2,917 ? -7.3°
